| time (UTC) | temp C | wind direction | speed KPH | gust KPH | rain 1hr cm | rain 24hr cm | rain mn cm | humidity % | barometer mb |
| 20260831163255 | 31 | 77 | 3.2 | 4.8 | 0.00 | 0.00 | 0.00 | 60 | 1019.3 |
| 20260831162753 | 31 | 144 | 9.7 | 16.1 | 0.00 | 0.00 | 0.00 | 59 | 1019.1 |
| 20260831162248 | 31 | 158 | 8.0 | 11.3 | 0.00 | 0.00 | 0.00 | 64 | 1019.4 |
| 20260831161742 | 30 | 83 | 8.0 | 9.7 | 0.00 | 0.00 | 0.00 | 63 | 1019.1 |
| 20260831161238 | 31 | 120 | 9.7 | 14.5 | 0.00 | 0.00 | 0.00 | 65 | 1019.1 |
| 20260831160738 | 30 | 128 | 3.2 | 4.8 | 0.00 | 0.00 | 0.00 | 68 | 1019.2 |
| 20260831160228 | 30 | 132 | 12.9 | 16.1 | 0.00 | 0.00 | 0.00 | 69 | 1019.2 |
| 20260831155727 | 30 | 93 | 6.4 | 9.7 | 0.00 | 0.00 | 0.00 | 68 | 1019.1 |
| 20260831155223 | 30 | 170 | 0.0 | 0.0 | 0.00 | 0.00 | 0.00 | 68 | 1019.2 |
| 20260831154719 | 29 | 179 | 4.8 | 6.4 | 0.00 | 0.00 | 0.00 | 70 | 1019.3 |
| 20260831154215 | 30 | 157 | 6.4 | 6.4 | 0.00 | 0.00 | 0.00 | 71 | 1019.2 |
| 20260831153713 | 29 | 81 | 3.2 | 4.8 | 0.00 | 0.00 | 0.00 | 73 | 1019.2 |
| 20260831153209 | 30 | 121 | 6.4 | 6.4 | 0.00 | 0.00 | 0.00 | 72 | 1019.2 |
| 20260831152705 | 29 | 130 | 3.2 | 4.8 | 0.00 | 0.00 | 0.00 | 73 | 1019.2 |
| 20260831152200 | 30 | 120 | 9.7 | 11.3 | 0.00 | 0.00 | 0.00 | 72 | 1019.1 |
| 20260831151655 | 30 | 178 | 11.3 | 12.9 | 0.00 | 0.00 | 0.00 | 72 | 1019.2 |
| 20260831151149 | 29 | 135 | 11.3 | 12.9 | 0.00 | 0.00 | 0.00 | 72 | 1019.2 |
| 20260831150644 | 29 | 181 | 9.7 | 11.3 | 0.00 | 0.00 | 0.00 | 73 | 1019.0 |
| 20260831150140 | 29 | 110 | 3.2 | 4.8 | 0.00 | 0.00 | 0.00 | 73 | 1018.9 |
| 20260831145638 | 29 | 154 | 1.6 | 3.2 | 0.00 | 0.00 | 0.00 | 75 | 1018.8 |
| 20260831145135 | 28 | 233 | 3.2 | 3.2 | 0.00 | 0.00 | 0.00 | 76 | 1018.7 |
| 20260831144631 | 28 | 216 | 3.2 | 4.8 | 0.00 | 0.00 | 0.00 | 78 | 1018.8 |
| 20260831144126 | 28 | 162 | 8.0 | 9.7 | 0.00 | 0.00 | 0.00 | 79 | 1018.9 |
| 20260831143626 | 27 | 207 | 6.4 | 6.4 | 0.00 | 0.00 | 0.00 | 80 | 1019.0 |
| 20260831143121 | 27 | 201 | 8.0 | 11.3 | 0.00 | 0.00 | 0.00 | 80 | 1018.9 |
| 20260831142618 | 27 | 267 | 4.8 | 4.8 | 0.00 | 0.00 | 0.00 | 83 | 1018.8 |
| 20260831142113 | 27 | 218 | 8.0 | 9.7 | 0.00 | 0.00 | 0.00 | 83 | 1018.9 |
| 20260831141612 | 27 | 231 | 3.2 | 4.8 | 0.00 | 0.00 | 0.00 | 84 | 1018.9 |
| 20260831141107 | 27 | 206 | 6.4 | 11.3 | 0.00 | 0.00 | 0.00 | 85 | 1018.8 |
| 20260831140607 | 27 | 216 | 4.8 | 4.8 | 0.00 | 0.00 | 0.00 | 86 | 1018.7 |
| 20260831135559 | 26 | 243 | 4.8 | 4.8 | 0.00 | 0.00 | 0.00 | 87 | 1018.6 |
| 20260831135055 | 27 | 225 | 8.0 | 12.9 | 0.00 | 0.00 | 0.00 | 86 | 1018.5 |
| 20260831134550 | 26 | 232 | 6.4 | 6.4 | 0.00 | 0.00 | 0.00 | 87 | 1018.7 |
| 20260831134045 | 26 | 180 | 6.4 | 6.4 | 0.00 | 0.00 | 0.00 | 88 | 1018.5 |
| 20260831133544 | 26 | 243 | 3.2 | 4.8 | 0.00 | 0.00 | 0.00 | 88 | 1018.5 |
| 20260831133039 | 26 | 212 | 6.4 | 9.7 | 0.00 | 0.00 | 0.00 | 89 | 1018.5 |
| 20260831132536 | 26 | 197 | 6.4 | 9.7 | 0.00 | 0.00 | 0.00 | 89 | 1018.2 |
| 20260831132034 | 26 | 166 | 8.0 | 9.7 | 0.00 | 0.00 | 0.00 | 89 | 1018.4 |
| 20260831131529 | 26 | 194 | 9.7 | 12.9 | 0.00 | 0.00 | 0.00 | 89 | 1018.3 |
| 20260831131025 | 26 | 176 | 11.3 | 11.3 | 0.00 | 0.00 | 0.00 | 89 | 1018.3 |
| 20260831130520 | 26 | 173 | 6.4 | 9.7 | 0.00 | 0.00 | 0.00 | 90 | 1018.4 |
| 20260831130016 | 26 | 204 | 4.8 | 4.8 | 0.00 | 0.00 | 0.00 | 89 | 1018.2 |
| 20260831125509 | 26 | 210 | 3.2 | 3.2 | 0.00 | 0.00 | 0.00 | 89 | 1018.2 |
| 20260831125005 | 26 | 158 | 4.8 | 6.4 | 0.00 | 0.00 | 0.00 | 90 | 1017.9 |
| 20260831124501 | 26 | 218 | 6.4 | 11.3 | 0.00 | 0.00 | 0.00 | 90 | 1017.8 |
| 20260831123956 | 26 | 182 | 6.4 | 6.4 | 0.00 | 0.00 | 0.00 | 90 | 1017.8 |
| 20260831123455 | 26 | 206 | 3.2 | 3.2 | 0.00 | 0.00 | 0.00 | 90 | 1017.8 |
| 20260831122949 | 26 | 185 | 4.8 | 9.7 | 0.00 | 0.00 | 0.00 | 90 | 1017.7 |
| 20260831122445 | 26 | 208 | 4.8 | 6.4 | 0.00 | 0.00 | 0.00 | 90 | 1017.7 |
| 20260831121940 | 26 | 203 | 3.2 | 4.8 | 0.00 | 0.00 | 0.00 | 90 | 1017.8 |
| 20260831121436 | 26 | 224 | 4.8 | 6.4 | 0.00 | 0.00 | 0.00 | 90 | 1017.9 |
| 20260831120931 | 26 | 205 | 6.4 | 6.4 | 0.00 | 0.00 | 0.00 | 90 | 1017.7 |
| 20260831120426 | 26 | 225 | 4.8 | 6.4 | 0.00 | 0.00 | 0.00 | 89 | 1017.6 |
| 20260831115926 | 26 | 197 | 6.4 | 6.4 | 0.00 | 0.00 | 0.00 | 89 | 1017.7 |
| 20260831115422 | 26 | 221 | 8.0 | 11.3 | 0.00 | 0.00 | 0.00 | 89 | 1017.6 |
| 20260831114922 | 26 | 189 | 3.2 | 3.2 | 0.00 | 0.00 | 0.00 | 89 | 1017.7 |
| 20260831114421 | 26 | 185 | 3.2 | 4.8 | 0.00 | 0.00 | 0.00 | 89 | 1017.8 |
| 20260831113916 | 26 | 123 | 6.4 | 9.7 | 0.00 | 0.00 | 0.00 | 89 | 1017.5 |
| 20260831113416 | 26 | 213 | 8.0 | 9.7 | 0.00 | 0.00 | 0.00 | 89 | 1017.7 |
| 20260831112911 | 26 | 212 | 3.2 | 4.8 | 0.00 | 0.00 | 0.00 | 89 | 1017.8 |
| 20260831112406 | 26 | 199 | 6.4 | 9.7 | 0.00 | 0.00 | 0.00 | 89 | 1017.8 |
| 20260831111901 | 26 | 218 | 4.8 | 4.8 | 0.00 | 0.00 | 0.00 | 89 | 1017.6 |
| 20260831111357 | 26 | 196 | 8.0 | 9.7 | 0.00 | 0.00 | 0.00 | 89 | 1017.6 |
| 20260831110853 | 26 | 169 | 1.6 | 3.2 | 0.00 | 0.00 | 0.00 | 89 | 1017.4 |
| 20260831110353 | 26 | 209 | 6.4 | 9.7 | 0.00 | 0.00 | 0.00 | 89 | 1017.4 |
| 20260831105851 | 26 | 215 | 6.4 | 9.7 | 0.00 | 0.00 | 0.00 | 88 | 1017.5 |
| 20260831105347 | 26 | 184 | 4.8 | 6.4 | 0.00 | 0.00 | 0.00 | 89 | 1017.5 |
| 20260831104842 | 26 | 175 | 4.8 | 6.4 | 0.00 | 0.00 | 0.00 | 89 | 1017.3 |
| 20260831104338 | 26 | 192 | 8.0 | 11.3 | 0.00 | 0.00 | 0.00 | 88 | 1017.5 |
| 20260831103833 | 26 | 199 | 9.7 | 11.3 | 0.00 | 0.00 | 0.00 | 88 | 1017.4 |
| 20260831103328 | 26 | 229 | 3.2 | 4.8 | 0.00 | 0.00 | 0.00 | 89 | 1017.6 |
| 20260831102823 | 26 | 189 | 8.0 | 9.7 | 0.00 | 0.00 | 0.00 | 89 | 1017.5 |
| 20260831102318 | 26 | 201 | 6.4 | 6.4 | 0.00 | 0.00 | 0.00 | 88 | 1017.5 |
| 20260831101814 | 26 | 206 | 3.2 | 3.2 | 0.00 | 0.00 | 0.00 | 88 | 1017.6 |
| 20260831101309 | 26 | 197 | 4.8 | 6.4 | 0.00 | 0.00 | 0.00 | 88 | 1017.5 |
| 20260831100805 | 26 | 195 | 6.4 | 9.7 | 0.00 | 0.00 | 0.00 | 88 | 1017.7 |
| 20260831100301 | 26 | 195 | 4.8 | 4.8 | 0.00 | 0.00 | 0.00 | 88 | 1017.8 |
| 20260831095800 | 26 | 182 | 6.4 | 6.4 | 0.00 | 0.00 | 0.00 | 88 | 1017.6 |
| 20260831095254 | 26 | 222 | 8.0 | 11.3 | 0.00 | 0.00 | 0.00 | 89 | 1017.6 |
| 20260831094749 | 26 | 212 | 1.6 | 1.6 | 0.00 | 0.00 | 0.00 | 89 | 1017.5 |
| 20260831094244 | 26 | 163 | 4.8 | 4.8 | 0.00 | 0.00 | 0.00 | 89 | 1017.6 |
| 20260831093740 | 26 | 205 | 3.2 | 4.8 | 0.00 | 0.00 | 0.00 | 89 | 1017.4 |
| 20260831093235 | 26 | 165 | 3.2 | 4.8 | 0.00 | 0.00 | 0.00 | 89 | 1017.6 |
| 20260831092732 | 26 | 170 | 4.8 | 6.4 | 0.00 | 0.00 | 0.00 | 89 | 1017.4 |
| 20260831092227 | 26 | 206 | 3.2 | 4.8 | 0.00 | 0.00 | 0.00 | 88 | 1017.5 |
| 20260831091726 | 26 | 189 | 8.0 | 11.3 | 0.00 | 0.00 | 0.00 | 88 | 1017.5 |
| 20260831091222 | 26 | 204 | 8.0 | 11.3 | 0.00 | 0.00 | 0.00 | 88 | 1017.6 |
| 20260831090717 | 26 | 192 | 6.4 | 6.4 | 0.00 | 0.00 | 0.00 | 87 | 1017.2 |
| 20260831090214 | 26 | 176 | 6.4 | 6.4 | 0.00 | 0.00 | 0.00 | 87 | 1017.2 |
| 20260831085709 | 26 | 187 | 14.5 | 16.1 | 0.00 | 0.00 | 0.00 | 87 | 1017.4 |
| 20260831085204 | 26 | 204 | 6.4 | 6.4 | 0.00 | 0.00 | 0.00 | 88 | 1017.4 |
| 20260831084659 | 26 | 185 | 3.2 | 4.8 | 0.00 | 0.00 | 0.00 | 88 | 1017.5 |
| 20260831084155 | 26 | 176 | 4.8 | 4.8 | 0.00 | 0.00 | 0.00 | 88 | 1017.3 |
| 20260831083651 | 26 | 96 | 3.2 | 4.8 | 0.00 | 0.00 | 0.00 | 88 | 1017.5 |
| 20260831083146 | 26 | 188 | 8.0 | 12.9 | 0.00 | 0.00 | 0.00 | 88 | 1017.4 |
| 20260831082644 | 26 | 180 | 11.3 | 14.5 | 0.00 | 0.00 | 0.00 | 87 | 1017.4 |
| 20260831082140 | 26 | 172 | 14.5 | 17.7 | 0.00 | 0.00 | 0.00 | 87 | 1017.4 |
| 20260831081636 | 26 | 144 | 8.0 | 9.7 | 0.00 | 0.00 | 0.00 | 87 | 1017.5 |
| 20260831081132 | 26 | 181 | 4.8 | 9.7 | 0.00 | 0.00 | 0.00 | 86 | 1017.5 |
| 20260831080627 | 26 | 190 | 14.5 | 16.1 | 0.00 | 0.00 | 0.00 | 86 | 1017.5 |
| 20260831080121 | 26 | 122 | 9.7 | 9.7 | 0.00 | 0.00 | 0.00 | 86 | 1017.6 |
| 20260831075618 | 26 | 132 | 8.0 | 11.3 | 0.00 | 0.00 | 0.00 | 85 | 1017.5 |
| 20260831075113 | 26 | 183 | 6.4 | 16.1 | 0.00 | 0.00 | 0.00 | 84 | 1017.4 |
| 20260831074612 | 26 | 131 | 4.8 | 11.3 | 0.00 | 0.00 | 0.00 | 84 | 1017.2 |
| 20260831074107 | 26 | 156 | 14.5 | 20.9 | 0.00 | 0.00 | 0.00 | 83 | 1017.5 |
| 20260831073602 | 27 | 177 | 19.3 | 24.1 | 0.00 | 0.00 | 0.00 | 82 | 1017.6 |
| 20260831073101 | 27 | 182 | 19.3 | 24.1 | 0.00 | 0.00 | 0.00 | 82 | 1017.5 |
| 20260831072556 | 27 | 165 | 3.2 | 4.8 | 0.00 | 0.00 | 0.00 | 79 | 1017.5 |
| 20260831072054 | 27 | 168 | 3.2 | 4.8 | 0.00 | 0.00 | 0.00 | 78 | 1017.5 |
| 20260831071551 | 27 | 172 | 3.2 | 3.2 | 0.00 | 0.00 | 0.00 | 78 | 1017.7 |
| 20260831071047 | 27 | 139 | 3.2 | 4.8 | 0.00 | 0.00 | 0.00 | 78 | 1017.5 |
| 20260831070546 | 27 | 142 | 8.0 | 11.3 | 0.00 | 0.00 | 0.00 | 78 | 1017.5 |
| 20260831070041 | 27 | 124 | 4.8 | 4.8 | 0.00 | 0.00 | 0.00 | 78 | 1017.5 |
| 20260831065538 | 27 | 166 | 11.3 | 14.5 | 0.00 | 0.00 | 0.00 | 77 | 1017.5 |
| 20260831065033 | 27 | 155 | 3.2 | 3.2 | 0.00 | 0.00 | 0.00 | 77 | 1017.7 |
| 20260831064528 | 27 | 161 | 3.2 | 4.8 | 0.00 | 0.00 | 0.00 | 76 | 1017.6 |
| 20260831064024 | 27 | 118 | 4.8 | 4.8 | 0.00 | 0.00 | 0.00 | 76 | 1017.7 |
| 20260831063519 | 27 | 167 | 12.9 | 14.5 | 0.00 | 0.00 | 0.00 | 76 | 1017.7 |
| 20260831063014 | 27 | 185 | 6.4 | 6.4 | 0.00 | 0.00 | 0.00 | 75 | 1017.6 |
| 20260831062509 | 28 | 140 | 1.6 | 3.2 | 0.00 | 0.00 | 0.00 | 75 | 1017.5 |
| 20260831062008 | 28 | 132 | 9.7 | 12.9 | 0.00 | 0.00 | 0.00 | 74 | 1017.5 |
| 20260831061506 | 28 | 146 | 6.4 | 12.9 | 0.00 | 0.00 | 0.00 | 74 | 1017.7 |
| 20260831061002 | 28 | 135 | 6.4 | 9.7 | 0.00 | 0.00 | 0.00 | 73 | 1017.5 |
| 20260831060456 | 28 | 154 | 6.4 | 9.7 | 0.00 | 0.00 | 0.00 | 73 | 1017.4 |
| 20260831055951 | 28 | 193 | 8.0 | 11.3 | 0.00 | 0.00 | 0.00 | 72 | 1017.6 |
| 20260831055446 | 28 | 149 | 6.4 | 9.7 | 0.00 | 0.00 | 0.00 | 71 | 1017.4 |
| 20260831054941 | 28 | 159 | 6.4 | 11.3 | 0.00 | 0.00 | 0.00 | 71 | 1017.4 |
| 20260831054436 | 28 | 208 | 6.4 | 9.7 | 0.00 | 0.00 | 0.00 | 71 | 1017.4 |
| 20260831053936 | 28 | 116 | 6.4 | 6.4 | 0.00 | 0.00 | 0.00 | 70 | 1017.4 |
| 20260831053433 | 28 | 166 | 9.7 | 12.9 | 0.00 | 0.00 | 0.00 | 69 | 1017.3 |
| 20260831052928 | 28 | 205 | 9.7 | 11.3 | 0.00 | 0.00 | 0.00 | 69 | 1017.3 |
| 20260831052428 | 28 | 187 | 9.7 | 11.3 | 0.00 | 0.00 | 0.00 | 69 | 1017.3 |
| 20260831051926 | 29 | 168 | 9.7 | 12.9 | 0.00 | 0.00 | 0.00 | 68 | 1017.2 |
| 20260831051425 | 29 | 118 | 11.3 | 14.5 | 0.00 | 0.00 | 0.00 | 68 | 1017.2 |
| 20260831050920 | 29 | 185 | 9.7 | 14.5 | 0.00 | 0.00 | 0.00 | 67 | 1017.4 |
| 20260831050420 | 29 | 171 | 4.8 | 6.4 | 0.00 | 0.00 | 0.00 | 66 | 1017.1 |
| 20260831045918 | 29 | 125 | 14.5 | 17.7 | 0.00 | 0.00 | 0.00 | 66 | 1017.0 |
| 20260831045418 | 30 | 84 | 3.2 | 4.8 | 0.00 | 0.00 | 0.00 | 65 | 1017.2 |
| 20260831044913 | 30 | 153 | 12.9 | 14.5 | 0.00 | 0.00 | 0.00 | 64 | 1017.1 |
| 20260831044408 | 30 | 184 | 9.7 | 12.9 | 0.00 | 0.00 | 0.00 | 64 | 1016.9 |
| 20260831043904 | 30 | 168 | 14.5 | 16.1 | 0.00 | 0.00 | 0.00 | 63 | 1016.9 |
| 20260831043403 | 30 | 167 | 8.0 | 9.7 | 0.00 | 0.00 | 0.00 | 63 | 1016.9 |
| 20260831042859 | 30 | 101 | 8.0 | 11.3 | 0.00 | 0.00 | 0.00 | 63 | 1016.9 |
| 20260831042358 | 30 | 141 | 12.9 | 14.5 | 0.00 | 0.00 | 0.00 | 62 | 1017.1 |
| 20260831041853 | 30 | 166 | 8.0 | 9.7 | 0.00 | 0.00 | 0.00 | 62 | 1016.8 |
| 20260831041352 | 30 | 180 | 9.7 | 11.3 | 0.00 | 0.00 | 0.00 | 62 | 1017.0 |
| 20260831040848 | 30 | 135 | 11.3 | 14.5 | 0.00 | 0.00 | 0.00 | 62 | 1016.9 |
| 20260831040342 | 30 | 173 | 6.4 | 9.7 | 0.00 | 0.00 | 0.00 | 62 | 1017.1 |
| 20260831035840 | 30 | 105 | 11.3 | 16.1 | 0.00 | 0.00 | 0.00 | 62 | 1016.9 |
| 20260831035339 | 30 | 173 | 8.0 | 11.3 | 0.00 | 0.00 | 0.00 | 62 | 1017.0 |
| 20260831034834 | 30 | 172 | 11.3 | 12.9 | 0.00 | 0.00 | 0.00 | 61 | 1016.9 |
| 20260831034329 | 30 | 141 | 6.4 | 9.7 | 0.00 | 0.00 | 0.00 | 61 | 1016.7 |
| 20260831033824 | 30 | 156 | 9.7 | 14.5 | 0.00 | 0.00 | 0.00 | 61 | 1016.7 |
| 20260831033319 | 30 | 171 | 17.7 | 24.1 | 0.00 | 0.00 | 0.00 | 60 | 1016.7 |
| 20260831032814 | 31 | 173 | 6.4 | 6.4 | 0.00 | 0.00 | 0.00 | 61 | 1016.8 |
| 20260831032309 | 31 | 128 | 14.5 | 16.1 | 0.00 | 0.00 | 0.00 | 60 | 1016.7 |
| 20260831031804 | 31 | 93 | 6.4 | 11.3 | 0.00 | 0.00 | 0.00 | 60 | 1016.7 |
| 20260831031303 | 31 | 96 | 11.3 | 20.9 | 0.00 | 0.00 | 0.00 | 60 | 1016.4 |
| 20260831030759 | 31 | 235 | 17.7 | 25.7 | 0.00 | 0.00 | 0.00 | 60 | 1016.5 |
| 20260831030256 | 31 | 187 | 4.8 | 6.4 | 0.00 | 0.00 | 0.00 | 60 | 1016.4 |
| 20260831025756 | 31 | 157 | 12.9 | 16.1 | 0.00 | 0.00 | 0.00 | 60 | 1016.2 |
| 20260831025250 | 31 | 108 | 6.4 | 9.7 | 0.00 | 0.00 | 0.00 | 61 | 1016.2 |
| 20260831024746 | 31 | 125 | 9.7 | 11.3 | 0.00 | 0.00 | 0.00 | 61 | 1016.2 |
| 20260831024245 | 31 | 144 | 12.9 | 16.1 | 0.00 | 0.00 | 0.00 | 60 | 1016.0 |
| 20260831023744 | 31 | 82 | 16.1 | 17.7 | 0.00 | 0.00 | 0.00 | 60 | 1016.2 |
| 20260831023243 | 31 | 88 | 8.0 | 11.3 | 0.00 | 0.00 | 0.00 | 59 | 1015.9 |
| 20260831022738 | 31 | 150 | 6.4 | 6.4 | 0.00 | 0.00 | 0.00 | 59 | 1015.9 |
| 20260831022237 | 31 | 127 | 11.3 | 14.5 | 0.00 | 0.00 | 0.00 | 58 | 1016.0 |
| 20260831021733 | 31 | 132 | 12.9 | 16.1 | 0.00 | 0.00 | 0.00 | 57 | 1015.8 |
| 20260831021232 | 32 | 134 | 6.4 | 11.3 | 0.00 | 0.00 | 0.00 | 56 | 1015.7 |
| 20260831020729 | 32 | 88 | 9.7 | 12.9 | 0.00 | 0.00 | 0.00 | 55 | 1015.6 |
| 20260831020228 | 32 | 94 | 17.7 | 24.1 | 0.00 | 0.00 | 0.00 | 54 | 1015.6 |
| 20260831015723 | 32 | 88 | 12.9 | 16.1 | 0.00 | 0.00 | 0.00 | 52 | 1015.6 |
| 20260831015219 | 32 | 129 | 3.2 | 4.8 | 0.00 | 0.00 | 0.00 | 48 | 1015.5 |
| 20260831014714 | 32 | 98 | 4.8 | 6.4 | 0.00 | 0.00 | 0.00 | 47 | 1014.9 |
| 20260831014209 | 33 | 77 | 6.4 | 11.3 | 0.00 | 0.00 | 0.00 | 46 | 1015.0 |
| 20260831013704 | 33 | 104 | 9.7 | 11.3 | 0.00 | 0.00 | 0.00 | 46 | 1015.0 |
| 20260831013158 | 33 | 100 | 3.2 | 4.8 | 0.00 | 0.00 | 0.00 | 46 | 1015.0 |
| 20260831012653 | 33 | 93 | 6.4 | 6.4 | 0.00 | 0.00 | 0.00 | 45 | 1014.8 |
| 20260831012149 | 33 | 87 | 0.0 | 3.2 | 0.00 | 0.00 | 0.00 | 45 | 1014.8 |
| 20260831011648 | 33 | 63 | 6.4 | 9.7 | 0.00 | 0.00 | 0.00 | 45 | 1014.9 |
| 20260831011144 | 33 | 128 | 6.4 | 9.7 | 0.00 | 0.00 | 0.00 | 45 | 1014.7 |
| 20260831010640 | 33 | 99 | 8.0 | 9.7 | 0.00 | 0.00 | 0.00 | 44 | 1014.7 |
| 20260831010135 | 33 | 136 | 3.2 | 3.2 | 0.00 | 0.00 | 0.00 | 44 | 1014.9 |
| 20260831005634 | 33 | 78 | 6.4 | 6.4 | 0.00 | 0.00 | 0.00 | 44 | 1014.7 |
| 20260831005130 | 33 | 97 | 6.4 | 9.7 | 0.00 | 0.00 | 0.00 | 44 | 1014.8 |
| 20260831004626 | 34 | 105 | 6.4 | 9.7 | 0.00 | 0.00 | 0.00 | 44 | 1014.8 |
| 20260831004121 | 34 | 106 | 3.2 | 4.8 | 0.00 | 0.00 | 0.00 | 44 | 1014.7 |
| 20260831003617 | 34 | 49 | 6.4 | 9.7 | 0.00 | 0.00 | 0.00 | 43 | 1014.7 |
| 20260831003113 | 34 | 118 | 3.2 | 6.4 | 0.00 | 0.00 | 0.00 | 43 | 1014.7 |
| 20260831002611 | 35 | 95 | 9.7 | 12.9 | 0.00 | 0.00 | 0.00 | 43 | 1014.4 |
| 20260831002107 | 35 | 132 | 6.4 | 11.3 | 0.00 | 0.00 | 0.00 | 42 | 1014.6 |
| 20260831001602 | 35 | 64 | 8.0 | 11.3 | 0.00 | 0.00 | 0.00 | 42 | 1014.5 |
| 20260831001058 | 35 | 90 | 4.8 | 6.4 | 0.00 | 0.00 | 0.00 | 42 | 1014.6 |
| 20260831000555 | 35 | 91 | 8.0 | 9.7 | 0.00 | 0.00 | 0.00 | 42 | 1014.6 |
| 20260831000054 | 35 | 77 | 0.0 | 1.6 | 0.00 | 0.00 | 0.00 | 41 | 1014.6 |
| 20260830235553 | 35 | 82 | 14.5 | 17.7 | 0.00 | 0.00 | 0.00 | 41 | 1014.6 |
| 20260830235048 | 35 | 39 | 4.8 | 6.4 | 0.00 | 0.00 | 0.00 | 42 | 1014.5 |
| 20260830234543 | 35 | 137 | 4.8 | 4.8 | 0.00 | 0.00 | 0.00 | 42 | 1014.7 |
| 20260830234038 | 35 | 76 | 6.4 | 9.7 | 0.00 | 0.00 | 0.00 | 42 | 1014.7 |
| 20260830233533 | 35 | 119 | 9.7 | 12.9 | 0.00 | 0.00 | 0.00 | 43 | 1014.7 |
| 20260830233029 | 35 | 59 | 4.8 | 6.4 | 0.00 | 0.00 | 0.00 | 43 | 1014.7 |
| 20260830232525 | 35 | 138 | 0.0 | 1.6 | 0.00 | 0.00 | 0.00 | 43 | 1014.5 |
| 20260830232021 | 35 | 196 | 1.6 | 1.6 | 0.00 | 0.00 | 0.00 | 42 | 1014.7 |
| 20260830231517 | 35 | 178 | 6.4 | 9.7 | 0.00 | 0.00 | 0.00 | 42 | 1014.9 |
| 20260830231016 | 35 | 135 | 9.7 | 11.3 | 0.00 | 0.00 | 0.00 | 42 | 1014.7 |
| 20260830230511 | 35 | 117 | 9.7 | 12.9 | 0.00 | 0.00 | 0.00 | 42 | 1014.8 |
| 20260830230011 | 35 | 102 | 8.0 | 9.7 | 0.00 | 0.00 | 0.00 | 42 | 1014.7 |
| 20260830225507 | 35 | 64 | 3.2 | 3.2 | 0.00 | 0.00 | 0.00 | 42 | 1014.7 |
| 20260830225006 | 35 | 99 | 9.7 | 12.9 | 0.00 | 0.00 | 0.00 | 44 | 1014.8 |
| 20260830224504 | 35 | 92 | 6.4 | 11.3 | 0.00 | 0.00 | 0.00 | 43 | 1014.8 |
| 20260830224001 | 35 | 140 | 17.7 | 20.9 | 0.00 | 0.00 | 0.00 | 43 | 1014.8 |
| 20260830223458 | 35 | 136 | 3.2 | 4.8 | 0.00 | 0.00 | 0.00 | 43 | 1014.9 |
| 20260830222957 | 35 | 74 | 3.2 | 3.2 | 0.00 | 0.00 | 0.00 | 42 | 1014.7 |
| 20260830222452 | 35 | 174 | 0.0 | 1.6 | 0.00 | 0.00 | 0.00 | 42 | 1014.6 |
| 20260830221948 | 36 | 201 | 4.8 | 6.4 | 0.00 | 0.00 | 0.00 | 40 | 1014.7 |
| 20260830221444 | 36 | 229 | 11.3 | 14.5 | 0.00 | 0.00 | 0.00 | 41 | 1014.8 |
| 20260830220940 | 35 | 99 | 3.2 | 4.8 | 0.00 | 0.00 | 0.00 | 43 | 1014.8 |
| 20260830220440 | 35 | 92 | 11.3 | 14.5 | 0.00 | 0.00 | 0.00 | 43 | 1014.9 |
| 20260830215937 | 36 | 138 | 9.7 | 14.5 | 0.00 | 0.00 | 0.00 | 42 | 1015.0 |
| 20260830215432 | 35 | 234 | 0.0 | 0.0 | 0.00 | 0.00 | 0.00 | 41 | 1015.0 |
| 20260830214926 | 35 | 115 | 6.4 | 9.7 | 0.00 | 0.00 | 0.00 | 41 | 1015.0 |
| 20260830214417 | 35 | 133 | 9.7 | 11.3 | 0.00 | 0.00 | 0.00 | 43 | 1015.1 |
| 20260830213916 | 35 | 149 | 8.0 | 11.3 | 0.00 | 0.00 | 0.00 | 44 | 1015.1 |
| 20260830213412 | 35 | 120 | 8.0 | 11.3 | 0.00 | 0.00 | 0.00 | 43 | 1015.3 |
| 20260830212907 | 35 | 154 | 9.7 | 12.9 | 0.00 | 0.00 | 0.00 | 42 | 1015.3 |
| 20260830212403 | 35 | 106 | 6.4 | 14.5 | 0.00 | 0.00 | 0.00 | 43 | 1015.4 |
| 20260830211903 | 35 | 133 | 16.1 | 20.9 | 0.00 | 0.00 | 0.00 | 43 | 1015.5 |
| 20260830211356 | 35 | 85 | 11.3 | 16.1 | 0.00 | 0.00 | 0.00 | 43 | 1015.5 |
| 20260830210852 | 35 | 105 | 9.7 | 12.9 | 0.00 | 0.00 | 0.00 | 45 | 1015.5 |
| 20260830210351 | 35 | 104 | 9.7 | 12.9 | 0.00 | 0.00 | 0.00 | 44 | 1015.6 |
| 20260830205849 | 35 | 61 | 9.7 | 16.1 | 0.00 | 0.00 | 0.00 | 44 | 1015.7 |
| 20260830205349 | 34 | 62 | 9.7 | 12.9 | 0.00 | 0.00 | 0.00 | 46 | 1016.1 |
| 20260830204844 | 35 | 73 | 6.4 | 9.7 | 0.00 | 0.00 | 0.00 | 44 | 1016.0 |
| 20260830204343 | 35 | 168 | 11.3 | 14.5 | 0.00 | 0.00 | 0.00 | 45 | 1016.3 |
| 20260830203838 | 35 | 171 | 6.4 | 9.7 | 0.00 | 0.00 | 0.00 | 45 | 1016.0 |
| 20260830203335 | 35 | 184 | 11.3 | 14.5 | 0.00 | 0.00 | 0.00 | 45 | 1016.1 |
| 20260830202834 | 35 | 128 | 12.9 | 16.1 | 0.00 | 0.00 | 0.00 | 45 | 1016.1 |
| 20260830202330 | 35 | 179 | 0.0 | 1.6 | 0.00 | 0.00 | 0.00 | 44 | 1016.2 |
| 20260830201825 | 35 | 168 | 1.6 | 4.8 | 0.00 | 0.00 | 0.00 | 46 | 1016.6 |
| 20260830201319 | 34 | 109 | 16.1 | 20.9 | 0.00 | 0.00 | 0.00 | 45 | 1016.4 |
| 20260830200814 | 33 | 196 | 6.4 | 11.3 | 0.00 | 0.00 | 0.00 | 47 | 1016.5 |
| 20260830200314 | 34 | 104 | 9.7 | 14.5 | 0.00 | 0.00 | 0.00 | 47 | 1016.7 |
| 20260830195809 | 33 | 216 | 3.2 | 4.8 | 0.00 | 0.00 | 0.00 | 50 | 1016.7 |
| 20260830195309 | 33 | 189 | 12.9 | 14.5 | 0.00 | 0.00 | 0.00 | 48 | 1016.8 |
| 20260830194807 | 34 | 126 | 11.3 | 16.1 | 0.00 | 0.00 | 0.00 | 48 | 1016.7 |
| 20260830194306 | 33 | 176 | 11.3 | 14.5 | 0.00 | 0.00 | 0.00 | 49 | 1016.9 |
| 20260830193801 | 33 | 99 | 6.4 | 11.3 | 0.00 | 0.00 | 0.00 | 50 | 1016.9 |
| 20260830193255 | 33 | 262 | 1.6 | 3.2 | 0.00 | 0.00 | 0.00 | 50 | 1017.1 |
| 20260830192746 | 34 | 223 | 14.5 | 16.1 | 0.00 | 0.00 | 0.00 | 50 | 1017.1 |
| 20260830192246 | 33 | 172 | 6.4 | 9.7 | 0.00 | 0.00 | 0.00 | 51 | 1017.1 |
| 20260830191742 | 33 | 125 | 9.7 | 14.5 | 0.00 | 0.00 | 0.00 | 49 | 1017.4 |
| 20260830191241 | 33 | 115 | 16.1 | 24.1 | 0.00 | 0.00 | 0.00 | 51 | 1017.5 |
| 20260830190737 | 33 | 185 | 6.4 | 6.4 | 0.00 | 0.00 | 0.00 | 52 | 1017.4 |
| 20260830190232 | 33 | 87 | 0.0 | 1.6 | 0.00 | 0.00 | 0.00 | 53 | 1017.6 |
| 20260830185730 | 33 | 143 | 11.3 | 12.9 | 0.00 | 0.00 | 0.00 | 49 | 1017.6 |
| 20260830185226 | 33 | 159 | 12.9 | 17.7 | 0.00 | 0.00 | 0.00 | 50 | 1017.6 |
| 20260830184725 | 33 | 117 | 9.7 | 12.9 | 0.00 | 0.00 | 0.00 | 53 | 1017.7 |
| 20260830184225 | 32 | 218 | 0.0 | 1.6 | 0.00 | 0.00 | 0.00 | 54 | 1017.7 |
| 20260830183721 | 33 | 133 | 12.9 | 16.1 | 0.00 | 0.00 | 0.00 | 54 | 1017.9 |
| 20260830183215 | 32 | 116 | 3.2 | 4.8 | 0.00 | 0.00 | 0.00 | 54 | 1018.2 |
| 20260830182710 | 32 | 94 | 0.0 | 1.6 | 0.00 | 0.00 | 0.00 | 53 | 1017.9 |
| 20260830182206 | 33 | 87 | 8.0 | 9.7 | 0.00 | 0.00 | 0.00 | 53 | 1017.8 |
| 20260830181702 | 32 | 108 | 4.8 | 6.4 | 0.00 | 0.00 | 0.00 | 55 | 1018.2 |
| 20260830181156 | 32 | 149 | 6.4 | 9.7 | 0.00 | 0.00 | 0.00 | 55 | 1018.3 |
| 20260830180655 | 32 | 110 | 9.7 | 11.3 | 0.00 | 0.00 | 0.00 | 58 | 1018.5 |
| 20260830180151 | 32 | 203 | 12.9 | 16.1 | 0.00 | 0.00 | 0.00 | 57 | 1018.7 |
| 20260830175649 | 32 | 117 | 14.5 | 20.9 | 0.00 | 0.00 | 0.00 | 57 | 1018.5 |
| 20260830175145 | 31 | 208 | 3.2 | 3.2 | 0.00 | 0.00 | 0.00 | 59 | 1018.9 |
| 20260830174640 | 32 | 130 | 8.0 | 9.7 | 0.00 | 0.00 | 0.00 | 58 | 1019.0 |
| 20260830174136 | 31 | 176 | 16.1 | 17.7 | 0.00 | 0.00 | 0.00 | 58 | 1019.2 |
| 20260830173630 | 31 | 134 | 4.8 | 9.7 | 0.00 | 0.00 | 0.00 | 59 | 1019.1 |
| 20260830173125 | 31 | 180 | 11.3 | 16.1 | 0.00 | 0.00 | 0.00 | 59 | 1019.3 |
| 20260830172622 | 31 | 163 | 3.2 | 4.8 | 0.00 | 0.00 | 0.00 | 59 | 1019.0 |
| 20260830172119 | 32 | 123 | 9.7 | 12.9 | 0.00 | 0.00 | 0.00 | 58 | 1019.3 |
| 20260830171613 | 31 | 218 | 8.0 | 11.3 | 0.00 | 0.00 | 0.00 | 60 | 1019.2 |
| 20260830171113 | 31 | 115 | 6.4 | 9.7 | 0.00 | 0.00 | 0.00 | 62 | 1019.4 |
| 20260830170608 | 31 | 198 | 6.4 | 6.4 | 0.00 | 0.00 | 0.00 | 63 | 1019.2 |
| 20260830170107 | 31 | 151 | 8.0 | 9.7 | 0.00 | 0.00 | 0.00 | 62 | 1019.4 |
| 20260830165602 | 31 | 159 | 4.8 | 4.8 | 0.00 | 0.00 | 0.00 | 66 | 1019.6 |
| 20260830165057 | 30 | 159 | 11.3 | 12.9 | 0.00 | 0.00 | 0.00 | 66 | 1019.6 |
| 20260830164554 | 30 | 192 | 11.3 | 12.9 | 0.00 | 0.00 | 0.00 | 66 | 1019.5 |
| 20260830164050 | 30 | 209 | 8.0 | 9.7 | 0.00 | 0.00 | 0.00 | 65 | 1019.6 |